This demonstration page uses our WeatherBlox Daily Observations layout. Learn more.

Left ArrowRight Arrow

Hourly Observations for July 30, 2018

Temp ( °F °C ) Dew Point ( °F °C ) Humidity (%) Winds ( mph kmh ) Pressure ( in mb ) Visibility ( mi km ) Precip ( " mm )
12:57 am 00:57 Clear 65 18.3 63 17.2 93 93 ENE 3 6 30.11 1020 10 16 0.00 0.00
1:57 am 01:57 Clear 65 18.3 63 17.2 93 93 Calm 30.10 1019 8 13 0.00 0.00
2:57 am 02:57 Mostly Clear 62 16.7 60 15.6 93 93 NW 3 6 30.11 1020 8 13 0.01 0.25
3:57 am 03:57 Mostly Clear 62 16.7 61 16.1 96 96 NNW 5 7 30.10 1019 7 11 0.00 0.00
4:57 am 04:57 Cloudy 63 17.2 61 16.1 93 93 Calm 30.08 1019 7 11 0.00 0.00
5:17 am 05:17 Mostly Cloudy with Mist and Fog 63 17 61 16 94 94 S 7 11 30.06 1018 6 10 0.00 0.00
5:42 am 05:42 Cloudy with Nearby Thunderstorms 63 17 63 17 100 100 S 9 15 30.06 1018 3 5 0.14 3.56
5:57 am 05:57 Cloudy with Thunderstorms 63 17.2 62 16.7 97 97 E 5 7 30.09 1019 3 5 0.25 6.35
6:07 am 06:07 Cloudy with Strong Thunderstorms 63 17 61 16 94 94 E 16 26 30.09 1019 4 6 0.15 3.81
6:11 am 06:11 Cloudy with Strong Thunderstorms 61 16 61 16 100 100 ENE 24 39 30.09 1019 3 4 0.40 10.16
6:15 am 06:15 Cloudy with Strong Thunderstorms 61 16 57 14 88 88 ENE 32 52 30.09 1019 2 3 0.00 0.00
6:24 am 06:24 Cloudy with Strong Thunderstorms 57 14 57 14 100 100 ENE 15 24 30.12 1020 2 3 0.00 0.00
6:26 am 06:26 Cloudy with Strong Thunderstorms 59 15 57 14 94 94 ENE 12 19 30.12 1020 3 5 1.11 28.19
6:32 am 06:32 Cloudy with Strong Thunderstorms 61 16 59 15 94 94 ENE 5 7 30.12 1020 8 13 1.16 29.46
6:46 am 06:46 Cloudy with Rain 61 16 59 15 94 94 SSE 5 7 30.12 1020 7 11 1.20 30.48
6:57 am 06:57 Cloudy with Rain 61 16.1 60 15.6 97 97 Calm 30.11 1020 6 10 1.22 30.99
7:35 am 07:35 Cloudy with Rain 61 16 59 15 94 94 NNW 8 13 30.15 1021 10 16 0.00 0.00
7:57 am 07:57 Cloudy with Light Rain 60 15.6 59 15 96 96 WNW 7 11 30.14 1021 10 16 0.05 1.27
8:14 am 08:14 Cloudy 61 16 57 14 88 88 N 3 6 30.15 1021 10 16 0.00 0.00
8:23 am 08:23 Cloudy 61 16 57 14 88 88 W 3 6 30.12 1020 10 16 0.00 0.00
8:57 am 08:57 Sunny 61 16.1 59 15 93 93 NW 3 6 30.13 1020 10 16 0.00 0.03
9:57 am 09:57 Sunny 66 18.9 61 16.1 84 84 N 8 13 30.14 1021 10 16 0.00 0.00
10:57 am 10:57 Partly Cloudy 68 20 62 16.7 81 81 NNE 3 6 30.14 1021 10 16 0.00 0.00
11:05 am 11:05 Mostly Cloudy 70 21 63 17 78 78 NNW 8 13 30.12 1020 10 16 0.00 0.00
11:42 am 11:42 Mostly Cloudy 72 22 61 16 69 69 N 7 11 30.09 1019 10 16 0.00 0.03
11:54 am 11:54 Mostly Cloudy with Nearby Thunderstorms 70 21 61 16 73 73 N 20 31 30.12 1020 10 16 0.00 0.03
11:57 am 11:57 Mostly Cloudy with Thunderstorms 67 19.4 60 15.6 79 79 N 22 35 30.14 1021 10 16 0.00 0.03
12:15 pm 12:15 Cloudy with Thunderstorms 64 18 57 14 78 78 NNE 14 22 30.12 1020 10 16 0.00 0.00
12:28 pm 12:28 Mostly Cloudy with Nearby Thunderstorms 64 18 61 16 88 88 N 15 24 30.12 1020 10 16 0.00 0.03
12:53 pm 12:53 Mostly Sunny 68 20 63 17 83 83 NE 14 22 30.12 1020 10 16 0.00 0.00
12:57 pm 12:57 Sunny 68 20 63 17.2 84 84 NE 16 26 30.14 1021 10 16 0.00 0.03
1:57 pm 13:57 Mostly Sunny 69 20.6 61 16.1 76 76 ENE 14 22 30.14 1021 10 16 0.00 0.03
2:57 pm 14:57 Sunny 69 20.6 60 15.6 73 73 ENE 9 15 30.14 1021 10 16 0.00 0.00
3:57 pm 15:57 Cloudy 71 21.7 60 15.6 68 68 NE 8 13 30.13 1020 10 16 0.00 0.00
4:57 pm 16:57 Mostly Cloudy 74 23.3 57 13.9 56 56 NE 12 19 30.12 1020 10 16 0.00 0.00
5:36 pm 17:36 Mostly Cloudy 70 21 57 14 64 64 NE 12 19 30.12 1020 10 16 0.00 0.00
5:44 pm 17:44 Mostly Cloudy with Nearby Thunderstorms 72 22 57 14 61 61 NNE 17 28 30.09 1019 10 16 0.00 0.00
5:57 pm 17:57 Partly Cloudy with Nearby Thunderstorms 69 20.6 55 12.8 61 61 NNE 17 28 30.14 1021 10 16 0.00 0.00
6:07 pm 18:07 Partly Cloudy 66 19 55 13 68 68 NNE 20 31 30.12 1020 10 16 0.00 0.00
6:57 pm 18:57 Cloudy with Light Rain 65 18.3 58 14.4 78 78 NNE 9 15 30.16 1021 10 16 0.00 0.03
7:57 pm 19:57 Sunny 67 19.4 57 13.9 71 71 N 9 15 30.15 1021 10 16 0.00 0.03
8:57 pm 20:57 Clear 65 18.3 58 14.4 78 78 NNW 6 9 30.16 1021 10 16 0.00 0.00
9:57 pm 21:57 Clear 63 17.2 58 14.4 84 84 NW 5 7 30.18 1022 10 16 0.00 0.00
10:57 pm 22:57 Clear 61 16.1 57 13.9 87 87 NW 5 7 30.20 1023 10 16 0.00 0.00
11:57 pm 23:57 Clear 59 15 56 13.3 90 90 WNW 6 9 30.20 1023 10 16 0.00 0.00

Powered by AerisWeather